| time (UTC) | temp F | wind direction | speed knots | gust knots | rain 1hr in | rain 24hr in | rain mn in | humidity % | barometer mb |
| 20260507043217 | 65 | 0.0 | 0.9 | 0.38 | 0.82 | 0.81 | 98 | 1011.6 | |
| 20260507042217 | 65 | 0.0 | 0.0 | 0.25 | 0.66 | 0.66 | 98 | 1011.7 | |
| 20260507041217 | 65 | 0.0 | 0.0 | 0.20 | 0.57 | 0.57 | 98 | 1012.0 | |
| 20260507040217 | 65 | 315 | 0.9 | 1.7 | 0.14 | 0.49 | 0.49 | 98 | 1011.8 |
| 20260507035217 | 65 | 0.0 | 0.0 | 0.12 | 0.46 | 0.46 | 98 | 1011.5 | |
| 20260507034217 | 65 | 338 | 0.9 | 2.6 | 0.13 | 0.46 | 0.46 | 98 | 1011.2 |
| 20260507033217 | 65 | 225 | 1.7 | 2.6 | 0.11 | 0.44 | 0.44 | 98 | 1010.1 |
| 20260507032217 | 65 | 90 | 2.6 | 5.2 | 0.08 | 0.41 | 0.41 | 98 | 1009.9 |
| 20260507031217 | 65 | 0.0 | 0.9 | 0.04 | 0.37 | 0.37 | 98 | 1012.6 | |
| 20260507030217 | 65 | 338 | 1.7 | 3.5 | 0.02 | 0.35 | 0.35 | 97 | 1011.6 |
| 20260507025217 | 65 | 45 | 0.9 | 0.9 | 0.01 | 0.34 | 0.34 | 97 | 1011.6 |
| 20260507024217 | 65 | 23 | 0.9 | 0.9 | 0.07 | 0.33 | 0.33 | 97 | 1011.1 |
| 20260507023217 | 65 | 0.0 | 0.9 | 0.10 | 0.33 | 0.33 | 97 | 1011.5 | |
| 20260507022216 | 65 | 113 | 0.9 | 1.7 | 0.19 | 0.33 | 0.33 | 97 | 1011.4 |
| 20260507021216 | 65 | 23 | 1.7 | 2.6 | 0.20 | 0.33 | 0.33 | 97 | 1011.3 |
| 20260507020217 | 65 | 0 | 1.7 | 2.6 | 0.32 | 0.33 | 0.33 | 96 | 1011.6 |
| 20260507015216 | 66 | 45 | 0.9 | 1.7 | 0.33 | 0.33 | 0.33 | 96 | 1011.3 |
| 20260507014216 | 66 | 315 | 2.6 | 4.3 | 0.26 | 0.26 | 0.26 | 96 | 1011.1 |
| 20260507013236 | 66 | 338 | 2.6 | 7.0 | 0.23 | 0.23 | 0.23 | 95 | 1010.9 |
| 20260507012217 | 67 | 23 | 2.6 | 4.3 | 0.14 | 0.14 | 0.14 | 94 | 1010.9 |
| 20260507010237 | 71 | 315 | 0.9 | 1.7 | 0.01 | 0.01 | 0.01 | 93 | 1010.7 |
| 20260507005217 | 72 | 0.0 | 0.0 | 0.00 | 0.00 | 0.00 | 95 | 1010.3 | |
| 20260507004217 | 72 | 135 | 0.9 | 1.7 | 0.00 | 0.00 | 0.00 | 95 | 1010.3 |
| 20260507003217 | 72 | 0.0 | 0.0 | 0.00 | 0.00 | 0.00 | 94 | 1010.7 | |
| 20260507002216 | 72 | 0.0 | 0.9 | 0.00 | 0.00 | 0.00 | 94 | 1010.6 | |
| 20260507001237 | 72 | 0.0 | 0.0 | 0.00 | 0.00 | 0.00 | 94 | 1010.6 | |
| 20260507000237 | 72 | 0.0 | 0.0 | 0.00 | 0.00 | 0.00 | 94 | 1010.1 | |
| 20260506235216 | 72 | 0.0 | 0.9 | 0.00 | 0.00 | 0.00 | 94 | 1010.6 | |
| 20260506234216 | 72 | 0.0 | 1.7 | 0.00 | 0.00 | 0.00 | 94 | 1010.6 | |
| 20260506233216 | 72 | 0.0 | 0.0 | 0.00 | 0.00 | 0.00 | 94 | 1011.4 | |
| 20260506232216 | 72 | 0.0 | 0.0 | 0.00 | 0.00 | 0.00 | 93 | 1010.6 | |
| 20260506231236 | 72 | 180 | 0.9 | 1.7 | 0.00 | 0.00 | 0.00 | 93 | 1010.4 |
| 20260506230216 | 72 | 0.0 | 0.0 | 0.00 | 0.00 | 0.00 | 93 | 1011.0 | |
| 20260506225217 | 72 | 0.0 | 0.9 | 0.00 | 0.00 | 0.00 | 93 | 1010.8 | |
| 20260506224216 | 72 | 0.0 | 0.9 | 0.00 | 0.00 | 0.00 | 93 | 1010.7 | |
| 20260506223216 | 72 | 203 | 0.9 | 1.7 | 0.00 | 0.00 | 0.00 | 93 | 1010.6 |
| 20260506222217 | 72 | 0.0 | 0.9 | 0.00 | 0.00 | 0.00 | 93 | 1010.8 | |
| 20260506221216 | 72 | 90 | 0.9 | 1.7 | 0.00 | 0.00 | 0.00 | 92 | 1010.9 |
| 20260506220216 | 73 | 180 | 0.9 | 0.9 | 0.00 | 0.00 | 0.00 | 91 | 1010.9 |
| 20260506215216 | 73 | 180 | 0.9 | 2.6 | 0.00 | 0.00 | 0.00 | 90 | 1010.8 |
| 20260506214216 | 74 | 0.0 | 0.9 | 0.00 | 0.00 | 0.00 | 88 | 1010.7 | |
| 20260506213216 | 74 | 225 | 0.9 | 1.7 | 0.00 | 0.00 | 0.00 | 88 | 1010.6 |
| 20260506212216 | 74 | 0.0 | 0.9 | 0.00 | 0.00 | 0.00 | 87 | 1010.6 | |
| 20260506211216 | 74 | 0.0 | 2.6 | 0.00 | 0.00 | 0.00 | 87 | 1010.7 | |
| 20260506210216 | 74 | 0.0 | 0.9 | 0.00 | 0.00 | 0.00 | 87 | 1010.7 | |
| 20260506205236 | 74 | 0.0 | 0.9 | 0.00 | 0.00 | 0.00 | 86 | 1010.7 | |
| 20260506204236 | 74 | 270 | 0.9 | 1.7 | 0.00 | 0.00 | 0.00 | 86 | 1010.7 |
| 20260506203216 | 74 | 0.0 | 0.9 | 0.00 | 0.00 | 0.00 | 86 | 1011.0 | |
| 20260506202216 | 75 | 0.0 | 0.9 | 0.00 | 0.00 | 0.00 | 86 | 1011.2 | |
| 20260506201236 | 75 | 248 | 0.9 | 1.7 | 0.00 | 0.00 | 0.00 | 85 | 1011.4 |
| 20260506200216 | 75 | 270 | 0.9 | 0.9 | 0.00 | 0.00 | 0.00 | 85 | 1011.4 |
| 20260506195237 | 75 | 0.0 | 1.7 | 0.00 | 0.00 | 0.00 | 86 | 1011.6 | |
| 20260506194216 | 74 | 0.0 | 0.9 | 0.00 | 0.00 | 0.00 | 85 | 1012.0 | |
| 20260506193216 | 75 | 180 | 1.7 | 4.3 | 0.00 | 0.00 | 0.00 | 85 | 1012.2 |
| 20260506192216 | 74 | 0.0 | 0.9 | 0.00 | 0.00 | 0.00 | 85 | 1012.3 | |
| 20260506191216 | 74 | 0.0 | 0.9 | 0.00 | 0.00 | 0.00 | 85 | 1012.5 | |
| 20260506190216 | 74 | 225 | 0.9 | 1.7 | 0.00 | 0.00 | 0.00 | 85 | 1012.5 |
| 20260506185216 | 74 | 0.0 | 0.0 | 0.00 | 0.00 | 0.00 | 84 | 1012.6 | |
| 20260506184216 | 75 | 0.0 | 0.9 | 0.00 | 0.00 | 0.00 | 84 | 1012.8 | |
| 20260506183216 | 75 | 0.0 | 0.9 | 0.00 | 0.00 | 0.00 | 83 | 1012.9 | |
| 20260506182215 | 76 | 135 | 1.7 | 3.5 | 0.00 | 0.00 | 0.00 | 81 | 1012.8 |
| 20260506181216 | 76 | 158 | 0.9 | 2.6 | 0.00 | 0.00 | 0.00 | 81 | 1012.8 |
| 20260506180216 | 76 | 248 | 1.7 | 2.6 | 0.00 | 0.00 | 0.00 | 82 | 1012.8 |
| 20260506175216 | 76 | 225 | 0.9 | 2.6 | 0.00 | 0.00 | 0.00 | 81 | 1012.9 |
| 20260506174244 | 76 | 180 | 1.7 | 3.5 | 0.00 | 0.00 | 0.00 | 81 | 1012.9 |
| 20260506173237 | 76 | 248 | 0.9 | 2.6 | 0.00 | 0.00 | 0.00 | 82 | 1013.0 |
| 20260506172216 | 76 | 0.0 | 0.9 | 0.00 | 0.00 | 0.00 | 80 | 1013.2 | |
| 20260506171216 | 76 | 113 | 0.9 | 1.7 | 0.00 | 0.00 | 0.00 | 81 | 1013.1 |
| 20260506170216 | 76 | 0.0 | 0.9 | 0.00 | 0.00 | 0.00 | 80 | 1012.9 | |
| 20260506165216 | 76 | 270 | 0.9 | 1.7 | 0.00 | 0.00 | 0.00 | 78 | 1013.0 |
| 20260506164217 | 76 | 225 | 0.9 | 0.9 | 0.00 | 0.00 | 0.00 | 81 | 1013.0 |
| 20260506163218 | 76 | 68 | 0.9 | 1.7 | 0.00 | 0.00 | 0.00 | 80 | 1013.1 |
| 20260506162218 | 76 | 0.0 | 0.9 | 0.00 | 0.00 | 0.00 | 79 | 1013.2 | |
| 20260506161237 | 76 | 270 | 0.9 | 1.7 | 0.00 | 0.00 | 0.00 | 78 | 1013.0 |
| 20260506160217 | 76 | 248 | 0.9 | 1.7 | 0.00 | 0.00 | 0.00 | 79 | 1013.2 |
| 20260506155218 | 75 | 0.0 | 0.0 | 0.00 | 0.00 | 0.00 | 82 | 1013.3 | |
| 20260506154217 | 75 | 225 | 0.9 | 1.7 | 0.00 | 0.00 | 0.00 | 81 | 1013.3 |
| 20260506153217 | 75 | 0 | 0.9 | 2.6 | 0.00 | 0.00 | 0.00 | 82 | 1013.3 |
| 20260506152218 | 74 | 0.0 | 0.9 | 0.00 | 0.00 | 0.00 | 83 | 1013.4 | |
| 20260506151217 | 73 | 203 | 0.9 | 2.6 | 0.00 | 0.00 | 0.00 | 84 | 1013.4 |
| 20260506150218 | 72 | 0.0 | 0.9 | 0.00 | 0.00 | 0.00 | 85 | 1013.4 | |
| 20260506145217 | 71 | 0.0 | 0.9 | 0.00 | 0.00 | 0.00 | 86 | 1013.6 | |
| 20260506144218 | 71 | 203 | 1.7 | 3.5 | 0.00 | 0.00 | 0.00 | 86 | 1013.6 |
| 20260506143217 | 70 | 135 | 0.9 | 1.7 | 0.00 | 0.00 | 0.00 | 87 | 1013.4 |
| 20260506142217 | 70 | 0.0 | 0.0 | 0.00 | 0.00 | 0.00 | 87 | 1013.6 | |
| 20260506141217 | 70 | 0.0 | 0.0 | 0.00 | 0.00 | 0.00 | 87 | 1013.6 | |
| 20260506140217 | 69 | 203 | 0.9 | 2.6 | 0.00 | 0.00 | 0.00 | 89 | 1013.4 |
| 20260506135238 | 68 | 248 | 0.9 | 1.7 | 0.00 | 0.00 | 0.00 | 90 | 1013.3 |
| 20260506134217 | 68 | 248 | 0.9 | 1.7 | 0.00 | 0.00 | 0.00 | 91 | 1013.4 |
| 20260506133217 | 67 | 225 | 0.9 | 1.7 | 0.00 | 0.00 | 0.00 | 91 | 1013.3 |
| 20260506132217 | 67 | 225 | 0.9 | 1.7 | 0.00 | 0.00 | 0.00 | 92 | 1013.5 |
| 20260506131217 | 67 | 0.0 | 1.7 | 0.00 | 0.00 | 0.00 | 91 | 1013.7 | |
| 20260506130217 | 67 | 113 | 0.9 | 1.7 | 0.00 | 0.00 | 0.00 | 91 | 1013.6 |
| 20260506125217 | 67 | 0.0 | 0.9 | 0.00 | 0.00 | 0.00 | 91 | 1013.4 | |
| 20260506124217 | 66 | 0.0 | 0.9 | 0.00 | 0.00 | 0.00 | 91 | 1013.1 | |
| 20260506123237 | 66 | 0.0 | 0.0 | 0.00 | 0.00 | 0.00 | 91 | 1013.2 | |
| 20260506122218 | 66 | 23 | 0.9 | 4.3 | 0.00 | 0.00 | 0.00 | 91 | 1012.8 |
| 20260506121219 | 66 | 180 | 0.9 | 0.9 | 0.00 | 0.00 | 0.00 | 91 | 1012.9 |
| 20260506120217 | 66 | 293 | 0.9 | 1.7 | 0.00 | 0.00 | 0.00 | 91 | 1012.7 |
| 20260506115217 | 66 | 248 | 0.9 | 4.3 | 0.00 | 0.00 | 0.00 | 91 | 1012.5 |
| 20260506114237 | 66 | 225 | 0.9 | 1.7 | 0.00 | 0.00 | 0.00 | 90 | 1012.5 |
| 20260506113217 | 66 | 0.0 | 0.9 | 0.00 | 0.00 | 0.00 | 90 | 1012.4 | |
| 20260506112217 | 66 | 270 | 0.9 | 2.6 | 0.00 | 0.00 | 0.00 | 90 | 1012.2 |
| 20260506111217 | 66 | 0.0 | 0.9 | 0.00 | 0.00 | 0.00 | 89 | 1012.1 | |
| 20260506110220 | 66 | 158 | 0.9 | 3.5 | 0.00 | 0.00 | 0.00 | 89 | 1012.1 |
| 20260506105917 | 66 | 0.0 | 0.9 | 0.00 | 0.00 | 0.00 | 89 | 1012.0 | |
| 20260506104945 | 66 | 0.0 | 0.9 | 0.00 | 0.00 | 0.00 | 89 | 1011.8 | |
| 20260506103916 | 67 | 225 | 0.9 | 4.3 | 0.00 | 0.00 | 0.00 | 89 | 1011.9 |
| 20260506102918 | 67 | 248 | 0.9 | 0.9 | 0.00 | 0.00 | 0.00 | 88 | 1011.8 |
| 20260506101916 | 67 | 248 | 0.9 | 0.9 | 0.00 | 0.00 | 0.00 | 88 | 1011.5 |
| 20260506100917 | 67 | 248 | 1.7 | 3.5 | 0.00 | 0.00 | 0.00 | 88 | 1011.3 |
| 20260506095937 | 67 | 180 | 0.9 | 0.9 | 0.00 | 0.00 | 0.00 | 87 | 1011.3 |
| 20260506094916 | 67 | 0.0 | 0.0 | 0.00 | 0.00 | 0.00 | 87 | 1011.4 | |
| 20260506093917 | 67 | 158 | 0.9 | 2.6 | 0.00 | 0.00 | 0.00 | 87 | 1011.4 |
| 20260506092937 | 67 | 0.0 | 0.9 | 0.00 | 0.00 | 0.00 | 86 | 1011.3 | |
| 20260506091916 | 67 | 0.0 | 0.9 | 0.00 | 0.00 | 0.00 | 86 | 1011.2 | |
| 20260506090916 | 67 | 0.0 | 0.9 | 0.00 | 0.00 | 0.00 | 85 | 1011.1 | |
| 20260506085917 | 67 | 0.0 | 0.9 | 0.00 | 0.00 | 0.00 | 85 | 1011.1 | |
| 20260506084916 | 67 | 0.0 | 0.9 | 0.00 | 0.00 | 0.00 | 84 | 1010.9 | |
| 20260506083957 | 67 | 158 | 1.7 | 3.5 | 0.00 | 0.00 | 0.00 | 84 | 1011.0 |
| 20260506082916 | 67 | 0.0 | 0.9 | 0.00 | 0.00 | 0.00 | 83 | 1010.9 | |
| 20260506081916 | 67 | 113 | 0.9 | 1.7 | 0.00 | 0.00 | 0.00 | 83 | 1010.9 |
| 20260506080916 | 68 | 0.0 | 1.7 | 0.00 | 0.00 | 0.00 | 83 | 1010.9 | |
| 20260506072916 | 68 | 135 | 0.9 | 0.9 | 0.00 | 0.00 | 0.00 | 81 | 1010.7 |
| 20260506071916 | 68 | 0.0 | 1.7 | 0.00 | 0.00 | 0.00 | 81 | 1010.8 | |
| 20260506070916 | 68 | 293 | 1.7 | 2.6 | 0.00 | 0.00 | 0.00 | 81 | 1010.9 |
| 20260506061916 | 69 | 113 | 1.7 | 13.0 | 0.00 | 0.00 | 0.00 | 80 | 1011.6 |
| 20260506060916 | 69 | 0.0 | 0.9 | 0.00 | 0.00 | 0.00 | 79 | 1011.7 | |
| 20260506050916 | 70 | 203 | 0.9 | 3.5 | 0.00 | 0.00 | 0.00 | 77 | 1011.9 |
| 20260506044917 | 70 | 225 | 0.9 | 2.6 | 0.00 | 0.00 | 0.00 | 77 | 1011.9 |
| 20260506043938 | 70 | 180 | 1.7 | 3.5 | 0.00 | 0.00 | 0.00 | 77 | 1011.7 |